Regional Weather Roundup
Issued by NWS

Home | Current Version | Previous Version | Graphics & Text | Print | Product List | Glossary On
Versions: 1 2 3 4 5 6 7 8 9 10 11 12 13 14 15 16 17 18 19 20 21 22 23 24 25 26 27 28 29 30 31 32 33 34 35 36 37 38 39 40 41 42 43 44 45 46 47 48 49 50
000
ASUS43 KLSX 020207
RWRMO

WEATHER SUMMARY FOR MISSOURI
NATIONAL WEATHER SERVICE SPRINGFIELD MO
900 PM CDT MON JUN 01 2015

NOTE: "FAIR" INDICATES FEW OR NO CLOUDS BELOW 12,000 FEET WITH NO
       SIGNIFICANT WEATHER AND/OR OBSTRUCTIONS TO VISIBILITY.
       CURRENT SKY AND/OR WEATHER CONDITIONS ARE NOT AVAILABLE FOR
       CHILLICOTHE AND FARMINGTON.

MOZ001>031-035>038-043-044-053-054-020300-
...NORTHERN AND WESTERN MISSOURI...

CITY           SKY/WX    TMP DP  RH WIND       PRES   REMARKS
KANSAS CTY INT CLOUDY    62  53  72 SE8       30.11F
KANSAS C DTWN  CLOUDY    64  53  67 E7        30.10F
LEE`S SUMMIT   CLOUDY    61  54  77 E7        30.12F
ST JOSEPH      CLOUDY    64  54  69 SE10      30.11R
CHILLICOTHE      N/A     63  55  75 SE5       30.14F
KIRKSVILLE     CLOUDY    60  55  83 SE6       30.15S

$$
MOZ066>068-077>081-088>096-101>105-020300-
...SOUTHWEST MISSOURI...

CITY           SKY/WX    TMP DP  RH WIND       PRES   REMARKS
SPRINGFIELD    CLEAR     61  55  81 NE9       30.09F
JOPLIN         CLEAR     64  57  78 NE7       30.08S

$$
MOZ032>034-039>042-045>050-055>058-069>072-020300-
...CENTRAL MISSOURI...

CITY           SKY/WX    TMP DP  RH WIND       PRES   REMARKS
COLUMBIA       CLOUDY    61  56  83 E6        30.14F
JEFFERSON CITY CLOUDY    62  55  77 NE6       30.14S
ROLLA          CLOUDY    58  56  93 NE6       30.12F
SEDALIA        CLOUDY    62  53  72 E5        30.14S
WHITEMAN AFB   CLOUDY    61  54  78 E5        30.12S
WARRENSBURG    CLOUDY    61  52  72 E5        30.12F
OSAGE BEACH    CLOUDY    61  54  77 CALM      30.13S

$$
MOZ051-052-059>065-020300-
...EAST CENTRAL MISSOURI...

CITY           SKY/WX    TMP DP  RH WIND       PRES   REMARKS
ST LOUIS INTL  CLOUDY    64  54  69 N3        30.14
SPIRIT OF STL  CLOUDY    61  58  90 CALM      30.13S
ST CHARLES     CLOUDY    63  57  81 N3        30.13S

$$
MOZ072>076-082>087-097>100-106>115-020300-
...SOUTH CENTRAL AND SOUTHEAST MISSOURI...

CITY           SKY/WX    TMP DP  RH WIND       PRES   REMARKS
CAPE GIRARDEAU CLOUDY    61  59  93 NE5       30.11S
FARMINGTON     CLOUDY    59  57  94 NE3       30.16S
POPLAR BLUFF   CLOUDY    62  58  86 N8        30.10S
WEST PLAINS    PTCLDY    59  55  87 CALM      30.12S

$$


USA.gov is the U.S. government's official web portal to all federal, state and local government web resources and services.